Location: Erraguntapalli
(18.7700°N, 79.7783°E)
Time: 09:22:42
(UTC+00:00)

NOAA 6 - Pass Details

Date: 15 November 2019
Orbit: 771 x 788 km, 98.6° (Epoch: 10 December)

Event Time Altitude Azimuth Distance (km) Brightness Sun altitude
Rises 00:18:47 0° 5° (N) 3,243 7.1 -7.3°
Reaches altitude 10° 00:21:08 10° 2° (N) 2,313 6.3 -6.8°
Maximum altitude 00:26:06 57° 284° (WNW) 905 4.1 -5.6°
Drops below altitude 10° 00:31:05 10° 206° (SSW) 2,307 6.4 -4.5°
Sets 00:33:25 0° 202° (SSW) 3,233 7.2 -4.0°
